Stations météo

réclame
Mon MeteoGroup
Lakenheath/RAF, Grande-Bretagne (3583): Température de l'air & dewpoint: 14.06.2018 06:00:00 - 20.06.2018 06:00:00 (BST)Lakenheath/RAF, Grande-Bretagne (3583): Vitesse du vent & gusts: 14.06.2018 06:00:00 - 20.06.2018 06:00:00 (BST)Lakenheath/RAF, Grande-Bretagne (3583): Direction du vent: 14.06.2018 06:00:00 - 20.06.2018 06:00:00 (BST)Lakenheath/RAF, Grande-Bretagne (3583): reduced air pressure: 14.06.2018 06:00:00 - 20.06.2018 06:00:00 (BST)Lakenheath/RAF, Grande-Bretagne (3583): visibility: 14.06.2018 06:00:00 - 20.06.2018 06:00:00 (BST)Lakenheath/RAF, Grande-Bretagne (3583): Quantités de précipitations: 14.06.2018 06:00:00 - 20.06.2018 06:00:00 (BST)
Date & Time tt [°C] td [°C] ff [km/h] ff [knt] fx [km/h] fx [knt] dd ppp [hPa] vv [km] rr [mm]
20.06.2018 06:00:00 16,1 14,3 8 4 - - S 1019,2 10 -
20.06.2018 05:00:00 15,4 13,8 8 4 - - SSW 1019,6 10 -
20.06.2018 04:00:00 16,3 14,3 13 7 - - SSW 1019,6 10 -
20.06.2018 03:00:00 16,4 14,2 13 7 - - SSW 1019,6 10 -
20.06.2018 02:00:00 - - - - - - - - - -
20.06.2018 01:00:00 17,7 14,8 15 8 - - SSW 1020,6 10 -
20.06.2018 00:00:00 18,4 14,7 13 7 - - SW 1020,6 10 -
19.06.2018 23:00:00 19,6 15,0 15 8 - - SW 1020,9 10 -
19.06.2018 22:00:00 20,4 15,8 16 9 - - WSW 1020,9 10 -
19.06.2018 21:00:00 21,8 15,6 18 10 - - WSW 1020,3 10 -
19.06.2018 20:00:00 22,8 15,6 26 14 - - WSW 1020,3 10 -
19.06.2018 19:00:00 23,1 15,4 21 11 - - WSW 1020,6 10 -
19.06.2018 18:00:00 24,4 15,3 28 15 - - SW 1020,3 10 -
19.06.2018 17:00:00 24,4 15,0 26 14 - - SW 1020,6 10 -
19.06.2018 16:00:00 23,9 14,6 18 10 - - SW 1020,9 10 -
19.06.2018 15:00:00 23,7 14,1 18 10 - - SSW 1021,3 10 -
19.06.2018 14:00:00 22,8 13,8 16 9 - - SW 1021,6 10 -
19.06.2018 13:00:00 22,0 13,3 18 10 - - SW 1021,9 10 -
19.06.2018 12:00:00 20,6 14,2 13 7 - - WSW 1021,9 10 -
19.06.2018 11:00:00 20,7 13,6 13 7 - - W 1021,9 10 -
19.06.2018 10:00:00 20,5 13,4 11 6 - - W 1021,9 10 -
19.06.2018 09:00:00 19,8 13,7 21 11 - - W 1021,9 10 -
19.06.2018 08:00:00 19,5 14,1 18 10 - - W 1021,6 10 -
19.06.2018 07:00:00 18,5 14,0 24 13 - - WSW 1020,9 10 -
19.06.2018 06:00:00 17,4 13,9 21 11 - - WSW - 10 -
19.06.2018 05:00:00 17,3 13,8 21 11 - - WSW - 10 -
19.06.2018 04:00:00 17,5 14,0 21 11 - - WSW - 10 -
19.06.2018 03:00:00 17,7 14,0 21 11 - - WSW - 10 -
19.06.2018 02:00:00 17,7 14,6 24 13 - - WSW - 10 -
19.06.2018 01:00:00 17,6 14,7 28 15 50 27 WSW - 10 -
19.06.2018 00:00:00 19,1 14,8 35 19 - - WSW - 10 -
18.06.2018 23:00:00 19,8 14,6 24 13 - - WSW - 10 -
18.06.2018 22:00:00 20,1 14,4 29 16 - - WSW 1017,9 10 -
18.06.2018 21:00:00 20,4 14,3 26 14 48 26 WSW 1017,2 10 -
18.06.2018 20:00:00 21,5 13,6 31 17 - - WSW 1017,2 10 -
18.06.2018 19:00:00 23,3 13,5 24 13 - - WSW 1016,9 10 -
18.06.2018 18:00:00 24,4 13,0 29 16 - - W 1016,5 10 -
18.06.2018 17:00:00 23,8 12,1 24 13 - - WSW 1016,5 10 -
18.06.2018 16:00:00 - - - - - - - - - -
18.06.2018 15:00:00 - - - - - - - - - -
18.06.2018 14:00:00 - - - - - - - - - -
18.06.2018 13:00:00 - - - - - - - - - -
18.06.2018 12:00:00 - - - - - - - - - -
18.06.2018 11:00:00 - - - - - - - - - -
18.06.2018 10:00:00 17,9 11,7 22 12 - - W 1016,9 10 -
18.06.2018 09:00:00 16,6 12,1 24 13 - - WSW 1016,9 10 0,0
18.06.2018 08:00:00 15,8 12,0 21 11 - - WSW 1016,5 10 -
18.06.2018 07:00:00 15,9 12,3 21 11 - - WSW 1015,9 10 -
18.06.2018 06:00:00 15,9 12,8 18 10 - - WSW 1015,2 10 -
18.06.2018 05:00:00 15,9 13,4 18 10 - - SW 1015,5 10 -
18.06.2018 04:00:00 15,8 13,8 15 8 - - SW 1015,2 10 -
18.06.2018 03:00:00 15,8 13,6 16 9 - - SW 1015,2 10 -
18.06.2018 02:00:00 15,9 13,4 18 10 - - SSW 1014,8 10 -
18.06.2018 01:00:00 15,7 13,2 21 11 - - SSW 1015,2 10 0,0
18.06.2018 00:00:00 15,9 12,4 22 12 - - SSW 1014,8 10 -
17.06.2018 23:00:00 15,9 12,3 21 11 - - SSW 1015,2 10 -
17.06.2018 22:00:00 16,5 11,6 16 9 - - SSW 1015,2 10 -
17.06.2018 21:00:00 17,0 11,3 22 12 - - SSW 1014,9 10 -
17.06.2018 20:00:00 17,3 11,3 18 10 - - SW 1015,2 10 -
17.06.2018 19:00:00 17,1 11,4 18 10 - - SW 1015,2 10 -
17.06.2018 18:00:00 18,2 10,3 21 11 - - SW 1014,9 10 -
17.06.2018 17:00:00 18,6 9,6 22 12 - - SSW 1014,9 10 -
17.06.2018 16:00:00 18,4 9,7 24 13 - - SW 1014,9 10 -
17.06.2018 15:00:00 19,0 8,9 28 15 - - SW 1014,9 10 -
17.06.2018 14:00:00 18,5 9,0 28 15 - - SW 1014,9 10 -
17.06.2018 13:00:00 17,7 9,1 21 11 - - WSW 1014,9 10 -
17.06.2018 12:00:00 17,7 8,8 22 12 - - SW 1014,9 10 -
17.06.2018 11:00:00 18,0 9,6 24 13 - - W 1014,9 10 -
17.06.2018 10:00:00 16,5 9,4 28 15 - - WSW 1014,8 10 -
17.06.2018 09:00:00 15,8 10,5 22 12 - - WSW 1014,8 10 -
17.06.2018 08:00:00 14,5 10,1 21 11 - - SW 1014,5 10 -
17.06.2018 07:00:00 13,3 9,9 16 9 - - SW 1013,8 10 -
17.06.2018 06:00:00 12,7 9,3 16 9 - - SW 1013,5 10 -
17.06.2018 05:00:00 12,1 9,1 13 7 - - SW 1013,2 10 -
17.06.2018 04:00:00 11,6 8,6 13 7 - - SW 1013,2 10 -
17.06.2018 03:00:00 11,0 8,4 15 8 - - SW 1013,2 10 -
17.06.2018 02:00:00 11,5 8,5 15 8 - - WSW 1013,2 10 -
17.06.2018 01:00:00 12,6 8,7 15 8 - - SW 1012,8 10 -
17.06.2018 00:00:00 14,3 8,9 21 11 - - WSW 1012,5 10 -
16.06.2018 23:00:00 14,7 9,1 22 12 - - SW 1012,1 10 -
16.06.2018 22:00:00 16,9 11,4 29 16 - - SW 1011,8 10 -
16.06.2018 21:00:00 17,1 11,4 18 10 - - SSW 1011,1 10 -
16.06.2018 20:00:00 18,5 11,3 28 15 - - SSW 1010,8 10 -
16.06.2018 19:00:00 19,2 11,2 22 12 - - SW 1011,1 10 -
16.06.2018 18:00:00 20,0 10,4 28 15 - - SSW 1011,1 10 -
16.06.2018 17:00:00 20,1 9,6 28 15 - - SW 1011,5 10 -
16.06.2018 16:00:00 20,0 9,3 26 14 - - SW 1011,8 10 -
16.06.2018 15:00:00 20,0 8,0 21 11 - - WSW 1012,1 10 -
16.06.2018 14:00:00 20,0 8,0 21 11 - - SW 1012,1 10 -
16.06.2018 13:00:00 19,4 7,5 21 11 - - SW 1012,5 10 -
16.06.2018 12:00:00 18,6 8,8 24 13 - - SW 1013,2 10 -
16.06.2018 11:00:00 16,4 8,1 18 10 - - WSW 1013,8 10 0,0
16.06.2018 10:00:00 15,2 8,4 15 8 - - WSW 1013,8 10 0,0
16.06.2018 09:00:00 14,7 9,3 11 6 - - WSW 1013,8 10 -
16.06.2018 08:00:00 13,6 9,4 0 0 - - N 1013,8 10 0,0
16.06.2018 07:00:00 13,8 8,6 8 4 - - SW 1013,8 10 -
16.06.2018 06:00:00 13,3 8,8 9 5 - - SW 1013,8 10 -
16.06.2018 05:00:00 13,3 8,8 5 3 - - SW 1013,5 10 -
16.06.2018 04:00:00 13,6 8,8 9 5 - - SW 1013,8 10 -
16.06.2018 03:00:00 13,7 8,5 8 4 - - SSW 1014,2 10 -
16.06.2018 02:00:00 13,9 8,5 5 3 - - SW 1014,2 10 -
16.06.2018 01:00:00 11,8 7,9 0 0 - - N 1014,8 10 -
16.06.2018 00:00:00 12,5 8,2 0 0 - - N 1014,5 10 -
15.06.2018 23:00:00 14,2 8,6 0 0 - - N 1014,8 10 -
15.06.2018 22:00:00 15,6 8,8 5 3 - - W 1015,2 10 -
15.06.2018 21:00:00 17,1 8,8 8 4 - - NNW 1014,8 10 -
15.06.2018 20:00:00 18,8 8,2 13 7 - - WNW 1014,5 10 -
15.06.2018 19:00:00 20,1 6,8 13 7 - - W 1014,5 10 0,0
15.06.2018 18:00:00 21,0 8,3 21 11 - - W 1014,5 10 0,0
15.06.2018 17:00:00 21,4 7,2 21 11 - - W 1014,9 10 -
15.06.2018 16:00:00 21,6 7,0 15 8 - - WSW 1015,2 10 -
15.06.2018 15:00:00 21,8 7,2 11 6 - - WNW 1015,5 10 -
15.06.2018 14:00:00 22,4 6,6 16 9 - - WSW 1015,5 10 -
15.06.2018 13:00:00 21,5 7,0 15 8 - - W 1015,5 10 -
15.06.2018 12:00:00 20,6 6,2 0 0 - - N 1015,9 10 -
15.06.2018 11:00:00 19,7 6,8 8 4 - - SSW 1015,9 10 -
15.06.2018 10:00:00 17,8 8,4 0 0 - - N 1016,2 10 -
15.06.2018 09:00:00 16,1 9,0 0 0 - - N 1016,5 10 -
15.06.2018 08:00:00 15,0 8,2 0 0 - - N 1016,5 10 -
15.06.2018 07:00:00 11,4 7,7 0 0 - - N 1016,2 10 -
15.06.2018 06:00:00 8,4 6,2 0 0 - - N 1015,9 10 -
15.06.2018 05:00:00 7,7 5,8 0 0 - - N 1015,5 10 -
15.06.2018 04:00:00 9,1 6,5 0 0 - - N 1015,5 10 -
15.06.2018 03:00:00 10,0 6,7 0 0 - - N 1015,5 10 -
15.06.2018 02:00:00 9,5 6,0 0 0 - - N 1015,5 10 -
15.06.2018 01:00:00 9,5 6,4 0 0 - - N 1015,2 10 -
15.06.2018 00:00:00 10,8 7,1 0 0 - - N 1015,2 10 -
14.06.2018 23:00:00 12,4 7,5 0 0 - - N 1014,9 10 -
14.06.2018 22:00:00 14,7 8,2 0 0 - - N 1014,5 10 -
14.06.2018 21:00:00 17,8 8,4 5 3 - - WNW 1013,5 10 -
14.06.2018 20:00:00 19,8 8,5 13 7 - - WNW 1012,8 10 -
14.06.2018 19:00:00 20,8 7,8 16 9 - - WNW 1012,1 10 -
14.06.2018 18:00:00 21,6 7,0 28 15 - - W 1011,4 10 -
14.06.2018 17:00:00 22,0 7,0 28 15 - - W 1011,1 10 -
14.06.2018 16:00:00 22,3 8,0 34 18 - - WNW 1010,1 10 -
14.06.2018 15:00:00 22,2 8,3 34 18 55 30 W 1009,4 10 -
14.06.2018 14:00:00 22,1 9,6 37 20 54 29 W 1008,4 10 0,0
14.06.2018 13:00:00 20,7 11,6 39 21 54 29 WSW 1008,1 10 0,0
14.06.2018 12:00:00 18,2 12,8 35 19 61 33 SSW 1007,7 10 -
14.06.2018 11:00:00 19,1 13,0 34 18 54 29 SW 1007,1 10 -
14.06.2018 10:00:00 17,8 12,0 37 20 59 32 SW 1006,7 10 -
14.06.2018 09:00:00 17,4 11,2 34 18 52 28 SSW 1006,7 10 -
14.06.2018 08:00:00 16,6 10,4 37 20 52 28 SW 1007,4 10 -
14.06.2018 07:00:00 15,5 10,5 26 14 - - SSW 1007,7 10 -
14.06.2018 06:00:00 15,1 10,7 22 12 - - S 1008,1 10 -

tt = Température de l'air
td = dewpoint
ff = Vitesse du vent
fx = gusts
dd = Direction du vent
ppp = reduced air pressure
vv = visibility
rr = Quantités de précipitations

stations d'obs. à proximité